SKW3064 KSBA-KSAN

Flight info

Callsign SKW3064
Flight time 0h 32m
Altitude 27000
Route MISHN5 SXC COMIX2
Aircraft E75L/M-SDE3GILORVW/S

Departure

Time 2026-05-08 12:25
Airport Santa Barbara Municipal Airport (KSBA)

Arrival

Time 2026-05-08 12:58
Airport San Diego International Airport (KSAN)
Time Latitude Longitude Altitude Speed Heading
2026-05-08 12:25 34.25302 -119.65267 12132 ft 349 kts 147°
2026-05-08 12:25 34.23228 -119.63664 13074 ft 357 kts 148°
2026-05-08 12:26 34.21116 -119.62035 14186 ft 361 kts 148°
2026-05-08 12:26 34.18995 -119.60400 15316 ft 363 kts 147°
2026-05-08 12:26 34.16851 -119.58750 16366 ft 367 kts 147°
2026-05-08 12:26 34.14699 -119.57095 17155 ft 377 kts 147°
2026-05-08 12:27 34.12577 -119.55121 17514 ft 397 kts 134°
2026-05-08 12:27 34.10743 -119.52501 17816 ft 414 kts 127°
2026-05-08 12:27 34.09052 -119.49770 19169 ft 398 kts 127°
2026-05-08 12:27 34.07384 -119.47171 20450 ft 388 kts 128°
2026-05-08 12:28 34.05707 -119.44601 21186 ft 395 kts 128°
2026-05-08 12:28 34.03962 -119.41938 21294 ft 416 kts 128°
2026-05-08 12:28 34.02133 -119.39142 21669 ft 427 kts 128°
2026-05-08 12:28 34.00316 -119.36387 23012 ft 412 kts 128°
2026-05-08 12:29 33.98529 -119.33692 23796 ft 413 kts 128°
2026-05-08 12:29 33.96727 -119.30965 24297 ft 418 kts 128°
2026-05-08 12:29 33.94908 -119.28209 24758 ft 423 kts 128°
2026-05-08 12:29 33.93071 -119.25427 25264 ft 427 kts 128°
2026-05-08 12:30 33.91233 -119.22646 25679 ft 432 kts 128°
2026-05-08 12:30 33.89357 -119.19808 26280 ft 432 kts 128°
2026-05-08 12:30 33.87492 -119.16991 27003 ft 429 kts 128°
2026-05-08 12:30 33.85649 -119.14208 27043 ft 418 kts 128°
2026-05-08 12:31 33.83889 -119.11541 27047 ft 397 kts 128°
2026-05-08 12:31 33.82209 -119.08997 27067 ft 383 kts 128°
2026-05-08 12:31 33.80555 -119.06498 27078 ft 381 kts 128°
2026-05-08 12:31 33.78900 -119.03997 27068 ft 383 kts 128°
2026-05-08 12:32 33.77233 -119.01480 27069 ft 385 kts 128°
2026-05-08 12:32 33.75559 -118.98957 27070 ft 386 kts 128°
2026-05-08 12:32 33.73889 -118.96438 27069 ft 385 kts 128°
2026-05-08 12:32 33.72216 -118.93919 27072 ft 385 kts 128°
2026-05-08 12:33 33.70541 -118.91397 27071 ft 387 kts 128°
2026-05-08 12:33 33.68861 -118.88870 27067 ft 387 kts 128°
2026-05-08 12:33 33.67182 -118.86347 27067 ft 386 kts 128°
2026-05-08 12:33 33.65525 -118.83858 27065 ft 387 kts 128°
2026-05-08 12:34 33.63847 -118.81338 27062 ft 384 kts 128°
2026-05-08 12:34 33.62176 -118.78832 27063 ft 385 kts 128°
2026-05-08 12:34 33.60499 -118.76318 27061 ft 386 kts 128°
2026-05-08 12:34 33.58827 -118.73814 27061 ft 384 kts 128°
2026-05-08 12:35 33.57150 -118.71304 27065 ft 384 kts 128°
2026-05-08 12:35 33.55501 -118.68837 27067 ft 384 kts 128°
2026-05-08 12:35 33.53828 -118.66336 27066 ft 384 kts 128°
2026-05-08 12:35 33.52145 -118.63823 27076 ft 387 kts 128°
2026-05-08 12:36 33.50458 -118.61305 27078 ft 386 kts 128°
2026-05-08 12:36 33.48781 -118.58802 27077 ft 385 kts 128°
2026-05-08 12:36 33.47101 -118.56297 27073 ft 384 kts 128°
2026-05-08 12:36 33.45425 -118.53800 27074 ft 384 kts 128°
2026-05-08 12:37 33.43752 -118.51308 27074 ft 384 kts 128°
2026-05-08 12:37 33.42075 -118.48814 27076 ft 384 kts 128°
2026-05-08 12:37 33.40399 -118.46322 27075 ft 384 kts 128°
2026-05-08 12:37 33.38728 -118.43819 27075 ft 384 kts 126°
2026-05-08 12:38 33.37380 -118.41119 27081 ft 384 kts 113°
2026-05-08 12:38 33.36593 -118.38076 27077 ft 383 kts 99°
2026-05-08 12:38 33.36188 -118.34925 27102 ft 383 kts 97°
2026-05-08 12:38 33.35851 -118.31761 27062 ft 384 kts 96°
2026-05-08 12:39 33.35515 -118.28600 27064 ft 382 kts 96°
2026-05-08 12:39 33.35169 -118.25443 27065 ft 383 kts 96°
2026-05-08 12:39 33.34818 -118.22282 27064 ft 383 kts 96°
2026-05-08 12:39 33.34462 -118.19126 27042 ft 383 kts 97°
2026-05-08 12:40 33.34024 -118.15968 26716 ft 385 kts 100°
2026-05-08 12:40 33.33503 -118.12837 26483 ft 383 kts 101°
2026-05-08 12:40 33.32983 -118.09688 25912 ft 388 kts 100°
2026-05-08 12:40 33.32471 -118.06524 25385 ft 387 kts 100°
2026-05-08 12:41 33.31968 -118.03371 24842 ft 385 kts 99°
2026-05-08 12:41 33.31477 -118.00282 24343 ft 380 kts 99°
2026-05-08 12:41 33.30987 -117.97190 23842 ft 376 kts 99°
2026-05-08 12:41 33.30500 -117.94119 23306 ft 372 kts 99°
2026-05-08 12:42 33.30022 -117.91104 22860 ft 366 kts 99°
2026-05-08 12:42 33.29548 -117.88121 22361 ft 364 kts 99°
2026-05-08 12:42 33.29077 -117.85159 21889 ft 362 kts 99°
2026-05-08 12:42 33.28607 -117.82211 21408 ft 361 kts 99°
2026-05-08 12:43 33.28138 -117.79273 20924 ft 359 kts 99°
2026-05-08 12:43 33.27671 -117.76352 20454 ft 356 kts 99°
2026-05-08 12:43 33.27207 -117.73452 19982 ft 354 kts 99°
2026-05-08 12:43 33.26745 -117.70571 19514 ft 351 kts 99°
2026-05-08 12:44 33.26286 -117.67714 19051 ft 348 kts 99°
2026-05-08 12:45 33.22518 -117.57596 17226 ft 342 kts 137°
2026-05-08 12:45 33.20713 -117.55734 16745 ft 342 kts 138°
2026-05-08 12:45 33.18916 -117.53884 16297 ft 339 kts 137°
2026-05-08 12:45 33.17156 -117.52022 15850 ft 337 kts 137°
2026-05-08 12:46 33.15432 -117.50185 15412 ft 335 kts 137°
2026-05-08 12:46 33.13702 -117.48354 15027 ft 331 kts 137°
2026-05-08 12:46 33.11908 -117.46651 14732 ft 329 kts 143°
2026-05-08 12:46 33.10019 -117.45140 14508 ft 323 kts 145°
2026-05-08 12:47 33.08166 -117.43668 14325 ft 319 kts 144°
2026-05-08 12:47 33.06336 -117.42180 14106 ft 318 kts 144°
2026-05-08 12:47 33.04509 -117.40676 13749 ft 320 kts 143°
2026-05-08 12:47 33.02698 -117.39164 13425 ft 315 kts 143°
2026-05-08 12:48 33.00908 -117.37662 13008 ft 315 kts 143°
2026-05-08 12:48 32.99119 -117.36159 12570 ft 313 kts 143°
2026-05-08 12:48 32.97347 -117.34673 12158 ft 309 kts 144°
2026-05-08 12:48 32.95620 -117.33226 11754 ft 306 kts 144°
2026-05-08 12:49 32.93886 -117.31773 11352 ft 302 kts 144°
2026-05-08 12:49 32.92176 -117.30343 10955 ft 299 kts 144°
2026-05-08 12:49 32.90484 -117.28930 10563 ft 296 kts 144°
2026-05-08 12:49 32.88803 -117.27533 10179 ft 293 kts 145°
2026-05-08 12:50 32.87140 -117.26152 9773 ft 290 kts 145°
2026-05-08 12:50 32.85490 -117.24783 9404 ft 287 kts 145°
2026-05-08 12:50 32.83862 -117.23430 9026 ft 284 kts 145°
2026-05-08 12:50 32.82250 -117.22092 8652 ft 282 kts 145°
2026-05-08 12:51 32.80902 -117.20453 8256 ft 279 kts 117°
2026-05-08 12:51 32.79885 -117.16130 7562 ft 274 kts 100°
2026-05-08 12:51 32.79479 -117.13917 7198 ft 274 kts 101°
2026-05-08 12:52 32.79033 -117.11722 6838 ft 274 kts 102°
2026-05-08 12:52 32.78080 -117.07334 6213 ft 270 kts 102°
2026-05-08 12:52 32.77575 -117.05224 6063 ft 262 kts 108°
2026-05-08 12:53 32.76821 -117.03285 5983 ft 253 kts 116°
2026-05-08 12:53 32.76031 -117.01459 5959 ft 245 kts 115°
2026-05-08 12:53 32.75276 -116.99645 5980 ft 245 kts 114°
2026-05-08 12:53 32.74527 -116.97831 6011 ft 250 kts 126°
2026-05-08 12:54 32.73135 -116.96635 6006 ft 251 kts 165°
2026-05-08 12:54 32.71433 -116.96371 5786 ft 251 kts 184°
2026-05-08 12:54 32.69786 -116.96976 4907 ft 249 kts 219°
2026-05-08 12:54 32.68755 -116.98551 3987 ft 242 kts 252°
2026-05-08 12:55 32.68697 -117.00502 3164 ft 237 kts 286°
2026-05-08 12:55 32.69209 -117.02252 2851 ft 214 kts 288°
2026-05-08 12:55 32.69657 -117.03881 2606 ft 201 kts 287°
2026-05-08 12:55 32.70053 -117.05427 2409 ft 193 kts 286°
2026-05-08 12:56 32.70429 -117.06923 2187 ft 182 kts 286°
2026-05-08 12:56 32.70765 -117.08293 1970 ft 165 kts 285°
2026-05-08 12:56 32.71075 -117.09563 1724 ft 157 kts 286°
2026-05-08 12:56 32.71373 -117.10779 1464 ft 149 kts 286°
2026-05-08 12:57 32.71649 -117.11905 1247 ft 143 kts 285°
2026-05-08 12:57 32.71920 -117.13035 1022 ft 142 kts 285°
2026-05-08 12:57 32.72195 -117.14165 799 ft 142 kts 285°
2026-05-08 12:57 32.72469 -117.15294 556 ft 143 kts 286°
2026-05-08 12:58 32.72742 -117.16422 321 ft 140 kts 286°
2026-05-08 12:58 32.72941 -117.17237 757 ft 311 kts 289°
2026-05-08 12:58 32.73146 -117.18109 304 ft 0 kts 289°
2026-05-08 12:58 32.73248 -117.18455 23 ft 5 kts 289°
2026-05-08 12:59 32.73296 -117.18680 22 ft 35 kts 288°
2026-05-08 12:59 32.73354 -117.18960 21 ft 36 kts 282°
2026-05-08 12:59 32.73430 -117.19246 20 ft 36 kts 286°
2026-05-08 12:59 32.73499 -117.19533 23 ft 36 kts 291°
2026-05-08 13:00 32.73529 -117.19804 23 ft 30 kts 248°
2026-05-08 13:00 32.73513 -117.20039 21 ft 29 kts 284°
2026-05-08 13:00 32.73559 -117.20277 20 ft 30 kts 281°
2026-05-08 13:00 32.73527 -117.20492 22 ft 25 kts 232°
2026-05-08 13:01 32.73420 -117.20565 20 ft 15 kts 189°
2026-05-08 13:01 32.73383 -117.20558 22 ft 1 kts 109°
2026-05-08 13:01 32.73387 -117.20515 20 ft 11 kts 83°
2026-05-08 13:01 32.73389 -117.20465 20 ft 0 kts 89°